El Dorado, AR

5:35 AM CDT on September 27, 2016 (GMT -0500)
South Arkansas Regional At Goodwin

Weather History for KELD - January, 2012

Change the Weather History Date:

Sunday, January 15, 2012

  Actual Average Record
Temperature  
Mean Temperature 44 °F 44 °F  
Max Temperature 61 °F 54 °F 78 °F (1949)
Min Temperature 26 °F 33 °F 11 °F (1963)
Degree Days  
Heating Degree Days 21 21  
Month to date heating degree days 292 324  
Since 1 July heating degree days 1397 1411  
Cooling Degree Days 0 0  
Month to date cooling degree days 0 0  
Year to date cooling degree days 0 0  
Moisture  
Dew Point 32 °F    
Average Humidity 68    
Maximum Humidity 100    
Minimum Humidity 36    
Precipitation  
Precipitation 0.00 in 0.13 in 1.84 in (1991)
Month to date precipitation 1.21 1.98  
Year to date precipitation 1.21 1.98  
Snow  
Snow 0.00 in - - ()
Month to date snowfall 0.0  
Since 1 July snowfall T  
Snow Depth 0.00 in    
Sea Level Pressure  
Sea Level Pressure 30.31 in    
Wind  
Wind Speed 5 mph (SSE)    
Max Wind Speed 15 mph    
Max Gust Speed 21 mph    
Visibility 10 miles    
Events      
T = Trace of Precipitation, MM = Missing Value Source: NWS Daily Summary

Daily Weather History Graph

Daily Weather History Graph

Search for Another Location

Airport or City:

Trip Planner

Search our weather history database for the weather conditions in past years. The results will help you decide how hot, cold, wet, or windy it might be!

Date:

Astronomy

Jan. 15, 2012 Rise Set
Actual Time 7:14 AM CST 5:26 PM CST
Civil Twilight 6:47 AM CST 5:53 PM CST
Nautical Twilight 6:17 AM CST 6:23 PM CST
Astronomical Twilight 5:47 AM CST 6:53 PM CST
Moon No Moon Rise 10:57 AM CST (1/15)
Length of Visible Light 11h 05m
Length of Day
10h 11m
Waning Gibbous, 57% of the Moon is Illuminated
Jan 15
Waning Gibbous
Jan 16
Last Quarter
Jan 23
New
Jan 30
First Quarter
Feb 7
Full

Hourly Weather History & Observations

Time (CST) Temp. Dew Point Humidity Pressure Visibility Wind Dir Wind Speed Gust Speed Precip Events Conditions
12:53 AM 30.9 °F 28.0 °F 89% 30.33 in 10.0 mi Calm Calm - N/A   Clear
1:53 AM 30.9 °F 28.0 °F 89% 30.35 in 10.0 mi Calm Calm - N/A   Clear
2:53 AM 30.0 °F 27.0 °F 88% 30.35 in 10.0 mi Calm Calm - N/A   Clear
3:53 AM 28.4 °F 26.6 °F 93% 30.34 in 10.0 mi Calm Calm - N/A   Clear
4:53 AM 27.0 °F 26.1 °F 96% 30.35 in 10.0 mi Calm Calm - N/A   Clear
5:53 AM 28.0 °F 25.0 °F 88% 30.36 in 10.0 mi Calm Calm - N/A   Clear
6:53 AM 27.0 °F 25.0 °F 92% 30.37 in 10.0 mi Calm Calm - N/A   Clear
7:53 AM 28.9 °F 27.0 °F 92% 30.38 in 10.0 mi Calm Calm - N/A   Clear
8:53 AM 39.9 °F 35.1 °F 83% 30.40 in 10.0 mi Calm Calm - N/A   Clear
9:53 AM 46.9 °F 32.0 °F 56% 30.42 in 10.0 mi South 4.6 mph - N/A   Clear
10:53 AM 53.1 °F 33.1 °F 47% 30.40 in 10.0 mi SSE 6.9 mph - N/A   Clear
11:53 AM 57.0 °F 33.1 °F 40% 30.36 in 10.0 mi SE 5.8 mph - N/A   Clear
12:53 PM 57.9 °F 33.1 °F 39% 30.33 in 10.0 mi South 8.1 mph - N/A   Clear
1:53 PM 57.2 °F 33.8 °F 41% 30.30 in 10.0 mi South 6.9 mph - N/A   Clear
2:53 PM 61.0 °F 34.0 °F 36% 30.27 in 10.0 mi South 9.2 mph - N/A   Clear
3:53 PM 59.0 °F 33.1 °F 38% 30.25 in 10.0 mi SE 6.9 mph - N/A   Clear
4:53 PM 57.9 °F 33.1 °F 39% 30.24 in 10.0 mi SE 6.9 mph - N/A   Clear
5:53 PM 55.9 °F 34.0 °F 44% 30.24 in 10.0 mi SE 5.8 mph - N/A   Clear
6:53 PM 55.0 °F 35.1 °F 47% 30.23 in 10.0 mi SSE 6.9 mph - N/A   Clear
7:53 PM 54.0 °F 35.1 °F 49% 30.23 in 10.0 mi SSE 8.1 mph - N/A   Clear
8:53 PM 55.0 °F 36.0 °F 49% 30.23 in 10.0 mi South 9.2 mph - N/A   Scattered Clouds
9:53 PM 55.9 °F 37.0 °F 49% 30.24 in 10.0 mi South 11.5 mph 18.4 mph N/A   Mostly Cloudy
10:53 PM 57.0 °F 39.0 °F 51% 30.24 in 10.0 mi South 9.2 mph 18.4 mph N/A   Overcast
11:53 PM 57.0 °F 41.0 °F 55% 30.22 in 10.0 mi South 11.5 mph 19.6 mph N/A   Overcast